Probability
11 13 14 10 6 5 3 2 1 0 0 0 0 0 0 0 0 1 2 3 3 3 2 1 0 0 0 0 0 0 0 0 0 0 0 0 0 0 0 1 0 0 0
12 13 12 9 5 4 2 1 0 0 0 0 0 0 0 0 1 2 3 3 3 3 2 1 0 0 0 0 0 0 0 0 0 0 0 0 0 0 1 1 1 0 0
14 12 10 6 3 2 1 0 0 0 0 0 0 0 0 0 1 2 3 3 3 3 3 1 0 0 0 0 0 0 0 0 0 0 0 0 0 0 1 1 1 0 0
14 12 8 4 1 1 0 0 0 0 0 0 0 0 0 0 0 1 3 3 3 3 3 2 0 0 0 0 0 0 0 0 0 0 0 0 0 0 0 0 0 0 0
14 10 6 2 0 0 0 0 0 0 0 0 0 0 0 0 0 1 2 3 3 3 2 1 0 0 0 0 0 0 0 0 0 0 0 0 0 0 0 0 0 0 0
11 8 4 1 0 0 0 0 0 0 0 0 0 0 0 0 0 1 2 3 3 2 1 0 0 0 0 0 0 0 0 0 0 0 0 0 0 0 0 0 0 0 0
9 7 4 1 0 0 0 0 0 0 0 0 0 0 0 0 0 0 1 2 2 1 0 0 0 0 0 0 0 0 0 0 0 0 0 0 0 0 0 0 0 0 0
8 7 5 2 0 0 0 0 0 0 0 0 1 1 0 0 0 0 0 1 1 0 0 0 0 0 0 0 0 0 0 0 0 0 0 0 0 0 0 0 0 0 0
7 7 6 3 1 0 0 0 0 0 1 1 2 2 1 1 0 0 0 0 0 0 0 0 0 0 0 0 0 0 0 0 0 0 0 0 0 0 0 0 0 0 0
7 7 7 5 3 1 0 0 0 1 2 3 3 3 3 2 1 0 0 0 0 0 0 0 0 0 0 0 0 0 0 0 0 0 0 0 0 0 0 0 0 0 0
8 8 7 5 4 3 2 1 0 1 2 3 4 3 3 3 2 1 0 0 0 0 0 0 0 0 0 0 0 0 0 0 0 0 0 0 0 0 0 0 0 0 0
6 6 5 3 3 3 4 4 3 2 3 4 4 4 3 3 3 2 0 0 0 0 1 1 0 0 0 0 0 0 0 0 0 0 0 0 0 0 0 0 0 0 0
3 3 2 1 1 2 4 6 6 5 5 5 4 4 3 3 3 2 1 0 0 0 1 1 0 0 0 0 0 0 0 0 0 0 0 0 0 0 0 0 0 0 0
2 2 1 0 0 0 2 4 6 5 4 4 4 4 4 3 3 3 2 1 0 0 1 1 0 0 0 0 0 0 0 0 0 0 0 0 0 0 0 0 0 0 0
3 2 1 0 0 0 1 2 2 2 2 2 3 4 4 3 2 2 2 1 0 0 0 0 0 0 0 0 0 0 0 0 0 0 0 0 0 0 0 0 0 0 0
2 1 0 0 0 0 0 0 0 0 0 0 1 1 1 1 1 1 1 1 0 0 0 0 0 0 0 0 0 0 0 0 0 0 0 0 0 0 0 0 0 0 0
1 0 0 0 0 0 0 0 0 0 0 0 0 0 0 0 0 0 0 0 0 0 0 0 0 0 0 0 0 0 0 0 0 0 0 0 0 0 0 0 0 0 0
0 0 0 0 0 0 0 0 0 0 0 0 0 0 0 0 0 0 0 0 0 0 0 0 0 0 0 0 0 0 0 0 0 0 0 0 0 0 0 0 0 0 0
0 0 0 0 0 0 0 0 0 0 0 0 0 0 0 0 0 0 0 0 0 0 0 0 0 0 0 0 0 0 0 0 0 0 0 0 0 0 0 0 0 0 0
1 0 0 0 0 0 0 0 0 0 0 0 0 0 0 0 0 0 0 0 0 0 0 0 0 0 0 0 0 0 0 0 0 0 0 0 0 0 0 0 0 0 0
2 1 0 0 0 0 0 0 0 0 0 0 0 0 0 0 0 0 0 0 0 0 0 0 0 0 0 0 0 0 0 0 0 0 0 0 0 0 0 0 0 0 0
2 1 0 0 0 0 0 0 0 0 0 0 0 0 0 0 0 0 0 0 0 0 0 0 0 0 0 0 0 0 0 0 0 0 0 0 0 0 0 0 0 0 0
2 1 0 0 0 0 0 0 0 0 0 0 0 0 0 0 0 0 0 0 0 0 0 0 0 0 0 0 1 1 1 1 1 1 0 0 0 0 0 0 0 0 0
1 0 0 0 0 0 0 0 0 0 0 0 0 0 0 0 0 0 0 0 0 0 0 0 0 0 0 1 2 2 2 2 2 2 1 0 0 0 0 0 0 0 0
0 0 0 0 0 0 0 0 0 0 0 0 0 0 0 0 0 0 0 0 0 0 0 0 0 0 0 1 2 3 3 2 2 2 1 0 0 0 0 0 0 0 0
0 0 0 0 0 0 0 0 0 0 0 1 1 1 0 0 0 0 0 0 0 0 0 0 0 0 0 1 2 2 2 1 1 1 1 1 0 0 0 0 0 0 0
Wind_Speed
7 6 6 6 5 5 5 5 5 4 4 4 3 3 4 4 4 4 3 3 3 2 2 2 2 2 1 1 1 2 2 3 2 2 1 1 1 2 1 2 2 3 4
6 6 6 6 5 5 5 5 5 4 4 4 3 3 4 4 4 5 5 4 4 4 3 3 3 2 2 1 2 2 2 2 3 2 1 1 1 2 2 2 2 3 3
6 6 6 6 6 6 6 5 5 5 4 3 3 4 4 4 4 5 5 4 4 4 4 4 4 3 3 2 2 2 2 2 2 2 1 1 1 1 1 1 2 1 3
6 6 6 6 7 6 6 5 5 5 4 4 4 4 4 4 4 4 4 4 4 4 4 4 4 5 5 4 3 3 2 2 2 2 1 1 1 1 1 1 1 1 2
6 6 6 6 5 5 5 5 5 5 5 4 4 3 4 4 4 5 5 5 4 4 4 4 4 5 6 5 4 4 3 2 2 2 2 1 1 1 2 2 2 2 2
6 6 6 5 5 5 5 5 4 4 4 4 4 4 4 4 5 7 6 4 4 4 4 3 3 4 5 5 6 6 7 5 4 3 2 3 4 3 3 2 2 1 2
6 6 6 6 6 6 6 5 5 4 4 3 3 4 4 5 7 7 8 5 4 4 4 3 3 3 4 3 4 4 5 7 8 6 5 5 5 5 4 3 3 4 4
6 6 6 7 6 5 5 5 5 4 4 4 4 4 4 5 7 7 7 4 3 4 4 4 4 3 4 4 3 3 3 4 6 6 6 6 5 5 5 5 4 3 2
6 6 6 6 6 6 5 5 4 3 3 3 3 4 4 5 7 7 6 3 3 4 3 4 4 4 6 7 4 4 3 4 4 5 6 6 6 7 5 3 2 2 2
6 6 5 6 6 6 6 5 3 3 3 3 3 4 4 4 6 7 7 3 3 2 2 3 5 6 6 7 5 5 5 5 3 2 2 3 4 5 6 6 5 4 3
5 4 4 5 5 6 5 4 3 3 3 2 3 3 3 4 6 8 8 4 4 3 3 2 3 6 7 8 7 6 7 5 3 3 3 3 3 3 3 4 5 5 5
4 4 4 4 4 4 4 4 3 3 3 2 1 2 2 3 5 7 10 8 5 4 3 3 3 6 6 7 6 7 6 4 2 2 2 3 3 4 4 4 5 5 5
4 4 3 3 3 3 4 4 3 3 3 3 2 3 3 2 4 7 9 9 8 4 3 4 4 5 5 4 7 7 4 3 2 3 4 4 4 4 3 2 2 2 3
4 3 3 3 2 2 3 3 4 4 4 3 3 3 3 2 2 3 3 4 5 4 3 2 3 3 3 3 3 4 4 4 4 4 4 4 2 2 2 2 2 2 1
4 3 2 2 3 2 2 3 4 5 6 5 5 4 4 5 6 7 5 4 4 4 3 1 1 1 2 2 2 3 3 3 4 4 4 3 3 3 3 2 2 2 2
3 3 2 2 2 2 2 1 2 3 6 8 8 6 5 7 7 7 8 7 6 6 4 3 3 4 4 4 4 4 3 4 5 4 4 4 4 4 3 2 2 2 3
4 3 2 2 2 2 2 2 1 3 2 4 6 7 6 6 7 7 7 6 5 7 4 4 4 5 5 5 4 4 4 4 4 4 4 4 4 4 3 3 3 2 2
3 4 4 3 3 3 3 3 3 3 2 2 3 6 6 6 6 6 5 4 2 3 3 4 5 5 5 5 5 4 4 4 4 4 4 4 4 4 3 3 3 3 3
2 2 3 3 2 2 2 3 3 3 3 2 2 2 3 3 3 4 6 3 4 4 4 4 5 5 5 5 5 4 4 4 4 4 4 4 4 3 3 3 3 4 3
2 3 3 2 2 2 2 3 3 3 3 3 3 3 2 2 2 3 4 4 4 4 4 5 5 5 4 4 4 4 4 4 4 3 4 3 3 3 4 4 3 3 3
1 2 3 2 2 2 2 3 3 3 3 3 4 4 6 4 4 5 5 5 5 5 5 5 4 4 4 4 4 4 4 3 3 3 3 3 3 3 3 3 3 3 3
1 1 2 2 2 2 2 3 3 3 4 4 3 3 6 3 3 4 4 5 5 5 5 4 4 4 4 4 4 4 4 4 3 3 3 3 3 3 3 3 3 2 2
2 2 2 2 2 3 3 2 3 3 3 3 3 2 3 3 3 3 4 4 3 3 3 3 3 3 3 3 3 4 4 4 4 4 4 3 3 3 3 3 3 3 3
2 2 3 3 2 2 2 2 2 3 3 3 2 2 3 4 3 4 3 3 3 3 2 2 3 4 4 3 2 2 2 2 3 3 4 4 4 3 3 3 3 3 3
3 3 3 3 3 2 2 2 2 2 2 2 2 2 2 3 3 3 2 2 2 2 3 2 2 2 4 4 3 2 2 2 2 2 2 3 4 4 3 3 3 3 2
2 2 2 2 2 2 2 2 2 2 2 2 2 2 2 2 2 1 1 1 1 1 1 1 1 2 2 2 2 2 2 2 2 2 2 3 3 3 3 3 3 3 3
Wind_Direction
183 179 170 172 173 171 171 179 180 180 177 179 184 192 192 190 183 172 180 180 182 191 190 184 205 191 170 181 152 150 165 152 174 259 253 247 184 203 215 215 213 210 216
182 175 174 170 169 172 178 182 179 176 179 185 185 191 199 194 186 180 187 188 186 192 199 190 210 198 189 190 173 176 183 173 163 215 268 254 230 210 203 208 220 218 220
174 172 171 171 175 182 184 182 180 177 180 184 185 193 201 198 191 188 186 190 195 199 196 192 202 189 200 201 189 187 190 182 163 169 237 251 250 209 178 232 224 238 236
172 173 175 181 183 185 183 181 182 183 182 189 195 200 199 198 195 192 186 192 201 205 202 199 199 193 197 196 195 192 182 175 167 164 216 250 239 229 156 208 267 259 251
168 175 183 183 179 177 180 185 187 187 190 189 191 202 201 200 201 194 194 200 203 211 215 213 211 208 205 198 194 188 175 179 179 177 209 222 228 200 213 213 224 266 276
175 182 179 171 172 176 181 182 179 187 191 185 193 199 206 214 202 198 195 197 200 204 211 219 222 212 208 207 204 197 188 188 194 192 207 214 227 214 207 197 196 205 276
177 180 176 177 180 186 186 178 182 188 184 191 202 201 213 220 205 205 204 190 192 201 204 202 213 206 198 199 210 216 219 217 207 193 202 220 216 210 194 205 205 204 227
177 181 183 181 184 183 180 184 191 188 187 200 209 212 215 224 209 208 205 197 199 209 209 204 203 209 207 193 193 213 233 233 223 210 211 222 224 217 199 200 203 216 252
182 185 186 182 179 178 181 188 189 185 197 209 211 212 217 229 212 205 194 190 204 218 218 210 203 210 218 200 187 209 239 259 251 227 225 232 235 229 207 170 182 185 251
190 191 186 180 182 185 188 188 186 184 199 205 217 218 217 225 209 197 187 185 201 217 224 221 215 216 220 203 193 201 226 245 239 254 251 257 249 241 221 200 190 192 215
182 175 178 179 184 187 185 180 176 181 185 200 219 235 225 218 199 193 190 186 194 203 216 226 231 226 227 217 207 210 223 227 224 225 238 251 258 251 238 217 199 192 201
160 161 171 183 193 182 176 179 174 173 178 200 219 254 252 219 198 202 202 203 195 192 215 226 234 235 234 228 220 227 230 221 212 229 240 246 245 247 243 232 220 216 216
158 167 178 184 198 183 177 178 173 173 182 201 209 233 249 232 216 217 214 214 211 204 220 230 244 247 237 232 231 231 222 209 209 227 241 246 239 236 236 246 246 225 235
164 174 174 177 189 188 182 179 180 188 197 205 211 227 240 237 224 217 219 218 215 218 233 246 248 238 233 241 243 233 219 212 210 226 240 251 250 238 232 222 225 223 244
159 168 172 181 185 189 194 194 195 206 200 200 212 211 212 229 230 210 195 202 203 207 183 180 197 208 241 250 246 243 232 219 223 228 231 245 251 250 252 228 206 199 205
155 165 172 177 183 183 181 224 250 238 233 224 224 213 220 228 221 210 209 210 203 180 162 190 210 218 227 232 234 238 231 228 228 225 223 225 231 234 245 239 210 203 215
170 177 179 180 185 189 184 185 240 316 304 244 232 219 217 217 212 209 208 204 195 168 180 210 217 222 229 232 230 228 231 231 223 220 224 226 224 223 220 223 220 214 223
178 181 177 184 191 197 201 204 198 200 236 278 258 233 223 218 213 207 182 145 165 189 211 219 225 228 228 231 232 232 234 234 226 224 226 226 219 214 217 220 215 213 221
188 192 189 187 189 196 202 203 206 208 214 230 248 266 232 217 208 199 173 184 203 213 220 230 234 233 233 234 233 230 228 230 229 223 222 223 217 208 218 222 217 217 217
208 219 200 187 190 203 207 208 212 215 217 222 224 226 182 153 188 201 205 217 217 222 223 231 237 238 237 235 230 228 230 233 229 227 220 217 211 200 209 216 214 212 217
211 223 214 195 198 207 214 217 217 215 219 228 233 223 192 195 208 210 210 216 222 226 228 230 232 235 236 228 223 223 224 226 219 220 220 214 206 204 209 211 214 217 216
196 207 211 212 213 216 224 224 218 216 221 227 241 236 207 213 216 217 220 226 230 231 229 225 228 231 229 222 216 215 218 221 220 217 215 208 202 203 203 206 212 217 211
200 222 234 233 224 222 224 228 223 219 224 227 226 210 198 222 229 230 232 234 234 237 235 226 229 239 239 225 213 206 209 215 215 203 200 198 197 199 195 197 200 201 205
210 224 234 234 227 220 225 232 232 229 223 219 217 208 207 216 224 232 236 242 241 240 236 226 220 219 218 216 212 211 214 217 206 197 190 191 194 193 187 190 201 201 200
218 225 221 215 216 220 223 227 231 233 224 217 213 214 225 230 238 242 242 241 244 244 238 230 230 222 205 200 211 214 206 202 204 197 185 183 188 191 190 195 198 194 199
220 224 224 216 211 210 214 225 233 233 227 220 210 204 211 221 235 252 256 246 259 263 258 236 222 215 201 201 213 207 195 191 197 203 191 180 183 191 189 192 193 189 197